This is the latest recevied weather packets stored in our database for station/object DC4AT. If no packets are shown the sender has not sent any weather packets the latest 10 day(s).
| Time | Temp. | Humidity | Pressure | Rain* | Wind** | Luminosity | Snow |
|---|---|---|---|---|---|---|---|
| 1777896216 | 20° C | 59% | 1012.7 hPa | 0 mm | - | 740 W/m² | - |
| 1777895616 | 20° C | 61% | 1012.9 hPa | 0 mm | - | 580 W/m² | - |
| 1777895016 | 19.44° C | 60% | 1013 hPa | 0 mm | - | 802 W/m² | - |
| 1777894417 | 19.44° C | 63% | 1012.9 hPa | 0 mm | - | 770 W/m² | - |
| 1777893817 | 18.89° C | 62% | 1013 hPa | 0 mm | - | 246 W/m² | - |
| 1777893217 | 18.89° C | 62% | 1013.1 hPa | 0 mm | - | 299 W/m² | - |
| 1777892617 | 18.89° C | 63% | 1013.1 hPa | 0 mm | - | 381 W/m² | - |
| 1777892017 | 19.44° C | 63% | 1013.2 hPa | 0 mm | - | 601 W/m² | - |
| 1777891417 | 18.89° C | 64% | 1013.2 hPa | 0 mm | - | 570 W/m² | - |
| 1777890817 | 18.33° C | 66% | 1013.4 hPa | 0 mm | - | 708 W/m² | - |
| 1777890217 | 18.33° C | 68% | 1013.6 hPa | 0 mm | - | 823 W/m² | - |
| 1777889617 | 18.33° C | 67% | 1013.6 hPa | 0 mm | - | 404 W/m² | - |
| 1777889017 | 17.78° C | 69% | 1013.7 hPa | 0 mm | - | 751 W/m² | - |
| 1777888417 | 17.78° C | 70% | 1013.7 hPa | 0 mm | - | 689 W/m² | - |
| 1777887817 | 17.22° C | 70% | 1013.8 hPa | 0 mm | - | 580 W/m² | - |
| 1777887217 | 17.22° C | 71% | 1013.7 hPa | 0 mm | - | 687 W/m² | - |
| 1777886617 | 16.67° C | 73% | 1013.9 hPa | 0 mm | - | 454 W/m² | - |
| 1777886017 | 16.11° C | 74% | 1014 hPa | 0 mm | - | 462 W/m² | - |
| 1777885417 | 15.56° C | 75% | 1014.1 hPa | 0 mm | - | 371 W/m² | - |
| 1777884817 | 15.56° C | 74% | 1014.1 hPa | 0 mm | - | 200 W/m² | - |
| 1777884217 | 15.56° C | 75% | 1014.1 hPa | 0 mm | - | 181 W/m² | - |
| 1777883617 | 15.56° C | 74% | 1014.1 hPa | 0 mm | - | 213 W/m² | - |
| 1777883017 | 15° C | 75% | 1014.1 hPa | 0 mm | - | 172 W/m² | - |
| 1777882417 | 15° C | 75% | 1014.1 hPa | 0 mm | - | 192 W/m² | - |
| 1777881817 | 15° C | 75% | 1014.1 hPa | 0 mm | - | 165 W/m² | - |
* Rain latest hour (hover to see other rain measurements)
** Current wind speed in m/s (hover to see current wind gust speed)